Weather History for KTNU - June, 2013

Change the Weather History Date:

Saturday, June 29, 2013

  Actual Average Record
Temperature  
Mean Temperature 68 °F -  
Max Temperature 73 °F 86 °F 98 °F (1970)
Min Temperature 64 °F 64 °F 50 °F (1973)
Cooling Degree Days 4    
Growing Degree Days 18 (Base 50)    
Moisture  
Dew Point 59 °F    
Average Humidity 72    
Maximum Humidity 88    
Minimum Humidity 60    
Precipitation  
Precipitation 0.00 in - - ()
Sea Level Pressure  
Sea Level Pressure 29.79 in    
Wind  
Wind Speed 13 mph (NNW)    
Max Wind Speed 24 mph    
Max Gust Speed 33 mph    
Visibility 10 miles    
Events Rain    
Averages and records for this station are not official NWS values.
T = Trace of Precipitation, MM = Missing Value Source: NWS Daily Summary

Daily Weather History Graph

Daily Weather History Graph

Search for Another Location

Airport or City:

Trip Planner

Search our weather history database for the weather conditions in past years. The results will help you decide how hot, cold, wet, or windy it might be!

Date:

Astronomy

Jun. 29, 2013 Rise Set
Actual Time 5:40 AM CDT 8:50 PM CDT
Civil Twilight 5:06 AM CDT 9:24 PM CDT
Nautical Twilight 4:22 AM CDT 10:08 PM CDT
Astronomical Twilight 3:30 AM CDT 11:00 PM CDT
Moon 12:13 AM CDT (6/29) 12:59 PM CDT (6/29)
Length of Visible Light 16h 18m
Length of Day
15h 09m
Waning Gibbous, 55% of the Moon is Illuminated
Jun 29
Waning Gibbous
Jun 29
Last Quarter
Jul 8
New
Jul 15
First Quarter
Jul 22
Full

Hourly Weather History & Observations

Time (CDT) Temp. Dew Point Humidity Pressure Visibility Wind Dir Wind Speed Gust Speed Precip Events Conditions
12:15 AM 71.6 °F 59.0 °F 64% 29.77 in 10.0 mi NW 10.4 mph - N/A   Clear
12:35 AM 69.8 °F 59.0 °F 68% 29.76 in 10.0 mi NW 9.2 mph - N/A   Clear
12:55 AM 69.8 °F 59.0 °F 68% 29.76 in 10.0 mi NW 8.1 mph - N/A   Clear
1:15 AM 69.8 °F 59.0 °F 68% 29.76 in 10.0 mi NW 10.4 mph - N/A   Clear
1:35 AM 69.8 °F 59.0 °F 68% 29.76 in 10.0 mi NW 10.4 mph - N/A   Clear
1:55 AM 69.8 °F 59.0 °F 68% 29.76 in 10.0 mi NNW 10.4 mph - N/A   Clear
2:15 AM 68.0 °F 59.0 °F 73% 29.76 in 10.0 mi NW 9.2 mph - N/A   Clear
2:35 AM 68.0 °F 59.0 °F 73% 29.76 in 10.0 mi NW 10.4 mph - N/A   Clear
2:55 AM 68.0 °F 59.0 °F 73% 29.76 in 10.0 mi NW 10.4 mph - N/A   Clear
3:15 AM 68.0 °F 59.0 °F 73% 29.76 in 10.0 mi NW 10.4 mph - N/A   Clear
3:35 AM 68.0 °F 59.0 °F 73% 29.75 in 10.0 mi NW 11.5 mph - N/A   Clear
3:55 AM 68.0 °F 59.0 °F 73% 29.75 in 10.0 mi NW 11.5 mph - N/A   Clear
4:15 AM 68.0 °F 59.0 °F 73% 29.76 in 10.0 mi NW 12.7 mph 18.4 mph N/A   Clear
4:35 AM 66.2 °F 59.0 °F 78% 29.76 in 10.0 mi NW 10.4 mph 18.4 mph N/A   Clear
4:55 AM 66.2 °F 59.0 °F 78% 29.76 in 10.0 mi NW 11.5 mph - N/A   Clear
5:15 AM 66.2 °F 59.0 °F 78% 29.76 in 10.0 mi North - - N/A   Clear
5:35 AM 66.2 °F 59.0 °F 78% 29.76 in 10.0 mi North - - N/A   Clear
5:55 AM 64.4 °F 57.2 °F 77% 29.76 in 10.0 mi NW 11.5 mph - N/A   Clear
6:15 AM 64.4 °F 59.0 °F 83% 29.77 in 10.0 mi NW 9.2 mph 16.1 mph N/A   Clear
6:35 AM 66.2 °F 59.0 °F 78% 29.77 in 10.0 mi NW 11.5 mph - N/A   Clear
6:55 AM 66.2 °F 59.0 °F 78% 29.77 in 10.0 mi NW 12.7 mph - N/A   Clear
7:15 AM 66.2 °F 59.0 °F 78% 29.77 in 10.0 mi NW 12.7 mph - N/A   Clear
7:35 AM 68.0 °F 59.0 °F 73% 29.76 in 10.0 mi NNW 12.7 mph - N/A   Clear
7:55 AM 68.0 °F 60.8 °F 78% 29.77 in 10.0 mi NNW 12.7 mph - N/A   Clear
8:15 AM 69.8 °F 60.8 °F 73% 29.77 in 10.0 mi NNW 12.7 mph 20.7 mph N/A   Clear
8:35 AM 69.8 °F 60.8 °F 73% 29.77 in 10.0 mi NNW 12.7 mph - N/A   Clear
8:55 AM 69.8 °F 60.8 °F 73% 29.77 in 10.0 mi NNW 16.1 mph - N/A   Partly Cloudy
9:15 AM 69.8 °F 60.8 °F 73% 29.77 in 10.0 mi NNW 17.3 mph - N/A   Mostly Cloudy
9:35 AM 71.6 °F 60.8 °F 69% 29.77 in 10.0 mi NW 13.8 mph - N/A   Overcast
9:55 AM 71.6 °F 60.8 °F 69% 29.76 in 9.0 mi NW 16.1 mph 23.0 mph N/A   Scattered Clouds
10:15 AM 71.6 °F 60.8 °F 69% 29.75 in 10.0 mi NNW 20.7 mph 26.5 mph N/A   Mostly Cloudy
10:35 AM 69.8 °F 60.8 °F 73% 29.76 in 9.0 mi NNW 19.6 mph 27.6 mph N/A   Mostly Cloudy
10:55 AM 71.6 °F 60.8 °F 69% 29.75 in 10.0 mi NNW 21.9 mph 32.2 mph N/A   Mostly Cloudy
11:15 AM 66.2 °F 62.6 °F 88% 29.76 in 2.5 mi NW 17.3 mph 32.2 mph N/A Rain Light Rain
11:35 AM 68.0 °F 62.6 °F 83% 29.76 in 10.0 mi NNW 17.3 mph - N/A   Mostly Cloudy
11:55 AM 71.6 °F 62.6 °F 73% 29.76 in 10.0 mi NNW 16.1 mph 23.0 mph N/A   Mostly Cloudy
12:15 PM 66.2 °F 62.6 °F 88% 29.77 in 3.0 mi North 16.1 mph 27.6 mph N/A   Haze
12:35 PM 69.8 °F 64.4 °F 83% 29.77 in 10.0 mi North 18.4 mph - N/A   Mostly Cloudy
12:55 PM 69.8 °F 60.8 °F 73% 29.77 in 10.0 mi North 15.0 mph 23.0 mph N/A   Mostly Cloudy
1:15 PM 69.8 °F 60.8 °F 73% 29.77 in 7.0 mi North 17.3 mph 24.2 mph N/A   Mostly Cloudy
1:35 PM 69.8 °F 62.6 °F 78% 29.77 in 9.0 mi NNW 16.1 mph - N/A   Mostly Cloudy
1:55 PM 73.4 °F 60.8 °F 65% 29.77 in 10.0 mi North 21.9 mph 29.9 mph N/A   Mostly Cloudy
2:15 PM 73.4 °F 60.8 °F 65% 29.78 in 9.0 mi North 18.4 mph 26.5 mph N/A   Mostly Cloudy
2:35 PM 73.4 °F 60.8 °F 65% 29.78 in 10.0 mi North 20.7 mph 29.9 mph N/A   Clear
2:55 PM 71.6 °F 60.8 °F 69% 29.79 in 10.0 mi North 24.2 mph - N/A   Mostly Cloudy
3:15 PM 73.4 °F 60.8 °F 65% 29.79 in 10.0 mi North 21.9 mph 33.4 mph N/A   Mostly Cloudy
3:35 PM 73.4 °F 60.8 °F 65% 29.79 in 10.0 mi North 21.9 mph - N/A   Mostly Cloudy
3:55 PM 73.4 °F 60.8 °F 65% 29.79 in 10.0 mi North 20.7 mph 29.9 mph N/A   Mostly Cloudy
4:15 PM 73.4 °F 60.8 °F 65% 29.80 in 10.0 mi North 21.9 mph 31.1 mph N/A   Scattered Clouds
4:35 PM 71.6 °F 60.8 °F 69% 29.80 in 10.0 mi North 20.7 mph - N/A   Scattered Clouds
4:55 PM 71.6 °F 60.8 °F 69% 29.81 in 10.0 mi North 19.6 mph 26.5 mph N/A   Overcast
5:15 PM 71.6 °F 59.0 °F 64% 29.81 in 10.0 mi North 18.4 mph 28.8 mph N/A   Mostly Cloudy
5:35 PM 71.6 °F 59.0 °F 64% 29.81 in 10.0 mi North 19.6 mph 26.5 mph N/A   Overcast
5:55 PM 71.6 °F 57.2 °F 60% 29.81 in 10.0 mi NNE 21.9 mph - N/A   Scattered Clouds
6:15 PM 71.6 °F 59.0 °F 64% 29.82 in 10.0 mi North 18.4 mph 26.5 mph N/A   Partly Cloudy
6:35 PM 69.8 °F 59.0 °F 68% 29.82 in 10.0 mi NNE 18.4 mph 24.2 mph N/A   Scattered Clouds
6:55 PM 69.8 °F 59.0 °F 68% 29.83 in 10.0 mi North 19.6 mph 27.6 mph N/A   Mostly Cloudy
7:15 PM 69.8 °F 57.2 °F 64% 29.84 in 10.0 mi North 19.6 mph 28.8 mph N/A   Overcast
7:35 PM 68.0 °F 57.2 °F 68% 29.84 in 10.0 mi North 17.3 mph 25.3 mph N/A   Scattered Clouds
7:55 PM 68.0 °F 57.2 °F 68% 29.85 in 10.0 mi NNE 19.6 mph 27.6 mph N/A   Clear
8:15 PM 66.2 °F 57.2 °F 73% 29.85 in 10.0 mi NNE 18.4 mph - N/A   Partly Cloudy
8:35 PM 66.2 °F 57.2 °F 73% 29.86 in 10.0 mi NNE 13.8 mph 19.6 mph N/A   Partly Cloudy
8:55 PM 66.2 °F 57.2 °F 73% 29.86 in 10.0 mi NNE 12.7 mph 20.7 mph N/A   Mostly Cloudy
9:15 PM 66.2 °F 57.2 °F 73% 29.87 in 10.0 mi NNE 13.8 mph 19.6 mph N/A   Mostly Cloudy
9:35 PM 66.2 °F 57.2 °F 73% 29.88 in 10.0 mi NNE 12.7 mph - N/A   Overcast
9:55 PM 64.4 °F 57.2 °F 77% 29.88 in 10.0 mi NNE 11.5 mph - N/A   Mostly Cloudy
10:15 PM 64.4 °F 57.2 °F 77% 29.89 in 10.0 mi NNE 10.4 mph - N/A   Scattered Clouds
10:35 PM 64.4 °F 57.2 °F 77% 29.89 in 10.0 mi North 9.2 mph - N/A   Scattered Clouds
10:55 PM 64.4 °F 57.2 °F 77% 29.89 in 10.0 mi NNE 10.4 mph - N/A   Overcast
11:15 PM 64.4 °F 57.2 °F 77% 29.90 in 10.0 mi NNE 9.2 mph - N/A   Mostly Cloudy
11:35 PM 64.4 °F 57.2 °F 77% 29.90 in 10.0 mi North 8.1 mph - N/A   Overcast
11:55 PM 64.4 °F 57.2 °F 77% 29.90 in 10.0 mi North 8.1 mph - N/A   Overcast